DW5091 Weather Reports


Display with metric or nautical units.
time (UTC)temp
F
wind
direction
speed
MPH
gust
MPH
rain 1hr
in
rain 24hr
in
rain mn
in
humidity
%
barometer
mb
20260510141604 54 8 5.0 12.0 0.00 0.00 0.00 72 1016.9
20260510141103 53 323 3.0 7.0 0.00 0.00 0.00 73 1016.9
20260510135604 53 0 7.0 15.0 0.00 0.00 0.00 73 1017.0
20260510133103 53 313 3.0 10.0 0.00 0.00 0.00 74 1017.2
20260510132603 54 348 4.0 12.0 0.00 0.00 0.00 74 1017.1
20260510132103 54 345 6.0 13.0 0.00 0.00 0.00 73 1017.1
20260510130603 54 354 6.0 12.0 0.00 0.00 0.00 73 1017.2
20260510125103 54 11 5.0 14.0 0.00 0.00 0.00 73 1017.4
20260510124603 54 3 7.0 17.0 0.00 0.00 0.00 73 1017.3
20260510123603 54 331 5.0 12.0 0.00 0.00 0.00 72 1017.4
20260510123103 54 344 5.0 13.0 0.00 0.00 0.00 73 1017.4
20260510122603 54 347 5.0 14.0 0.00 0.00 0.00 73 1017.5
20260510121104 54 352 6.0 16.0 0.00 0.00 0.00 72 1017.5
20260510120603 54 6 7.0 18.0 0.00 0.00 0.00 72 1017.4
20260510120104 55 1 5.0 14.0 0.00 0.00 0.00 71 1017.5
20260510115604 55 347 5.0 12.0 0.00 0.00 0.00 71 1017.5
20260510112604 55 14 11.0 22.0 0.00 0.00 0.00 70 1017.7
20260510112103 56 348 8.0 18.0 0.00 0.00 0.00 70 1017.7
20260510105603 56 343 10.0 20.0 0.00 0.00 0.00 69 1017.8
20260510105103 56 11 12.0 20.0 0.00 0.00 0.00 68 1017.8
20260510104602 56 0 5.0 12.0 0.00 0.00 0.00 70 1018.0
20260510103104 56 347 7.0 18.0 0.00 0.00 0.00 69 1017.9
20260510100603 54 8 7.0 16.0 0.00 0.00 0.00 72 1018.1
20260510095603 54 7 9.0 20.0 0.00 0.00 0.00 72 1018.2
20260510093603 53 329 3.0 12.0 0.00 0.00 0.00 74 1018.3
20260510093104 53 347 3.0 14.0 0.00 0.00 0.00 74 1018.3
20260510092603 53 359 9.0 17.0 0.00 0.00 0.00 75 1018.4
20260510091103 53 350 7.0 13.0 0.00 0.00 0.00 75 1018.6
20260510090603 53 336 7.0 15.0 0.00 0.00 0.00 75 1018.7
20260510085603 52 358 6.0 18.0 0.00 0.00 0.00 76 1018.6
20260510084103 52 348 6.0 15.0 0.00 0.00 0.00 77 1018.7
20260510082603 52 326 3.0 15.0 0.00 0.00 0.00 78 1018.8
20260510082103 51 0 5.0 13.0 0.00 0.00 0.00 78 1018.8
20260510081603 51 338 5.0 9.0 0.00 0.00 0.00 78 1018.7
20260510081103 51 309 3.0 15.0 0.00 0.00 0.00 78 1018.8
20260510080103 51 356 6.0 17.0 0.00 0.00 0.00 79 1018.9
20260510074103 51 345 6.0 17.0 0.00 0.00 0.00 78 1018.8
20260510073104 51 348 6.0 13.0 0.00 0.00 0.00 79 1018.7
20260510072603 51 355 6.0 15.0 0.00 0.00 0.00 79 1018.6
20260510070104 50 356 3.0 12.0 0.00 0.00 0.00 81 1018.4
20260510064103 49 354 6.0 12.0 0.00 0.00 0.00 82 1018.3
20260510063604 49 6 10.0 17.0 0.00 0.00 0.00 82 1018.2
20260510061603 49 13 4.0 10.0 0.00 0.00 0.00 84 1018.3
20260510061104 49 318 2.0 7.0 0.00 0.00 0.00 84 1018.2
20260510055603 48 18 5.0 14.0 0.00 0.00 0.00 85 1018.4
20260510054103 48 352 3.0 7.0 0.00 0.00 0.00 86 1018.3
20260510052102 47 3 3.0 12.0 0.00 0.00 0.00 86 1018.4
20260510051103 47 355 5.0 7.0 0.00 0.00 0.00 86 1018.4
20260510050603 47 334 3.0 10.0 0.00 0.00 0.00 86 1018.4
20260510045603 47 352 2.0 7.0 0.00 0.00 0.00 86 1018.4
20260510045104 47 317 3.0 9.0 0.00 0.00 0.00 86 1018.3
20260510044103 47 3 5.0 12.0 0.00 0.00 0.00 86 1018.4
20260510043603 47 8 5.0 13.0 0.00 0.00 0.00 86 1018.3
20260510042603 47 2 5.0 12.0 0.00 0.00 0.00 87 1018.3
20260510041103 47 4 3.0 8.0 0.00 0.00 0.00 87 1018.3
20260510035103 47 5 3.0 12.0 0.00 0.00 0.00 87 1018.4
20260510034103 47 356 3.0 9.0 0.00 0.00 0.00 86 1018.5
20260510033603 47 345 3.0 7.0 0.00 0.00 0.00 86 1018.6
20260510031603 48 345 2.0 10.0 0.00 0.00 0.00 84 1018.8
20260510030103 48 356 2.0 10.0 0.00 0.00 0.00 82 1018.9
20260510025604 48 0 3.0 12.0 0.00 0.00 0.00 82 1018.8
20260510025103 48 351 4.0 12.0 0.00 0.00 0.00 81 1018.8
20260510024603 48 9 4.0 10.0 0.00 0.00 0.00 80 1018.8
20260510024103 48 346 5.0 13.0 0.00 0.00 0.00 80 1018.8
20260510022603 49 357 3.0 9.0 0.00 0.00 0.00 78 1018.7
20260510020105 49 346 3.0 9.0 0.00 0.00 0.00 76 1018.7
20260510015103 49 4 5.0 12.0 0.00 0.00 0.00 76 1018.6
20260510014603 49 358 3.0 10.0 0.00 0.00 0.00 75 1018.5
20260510014103 50 351 5.0 10.0 0.00 0.00 0.00 75 1018.5
20260510012604 50 356 4.0 12.0 0.00 0.00 0.00 73 1018.6
20260510011103 51 348 4.0 8.0 0.00 0.00 0.00 70 1018.7
20260510010103 51 9 5.0 9.0 0.00 0.00 0.00 69 1018.7
20260510003603 52 350 5.0 12.0 0.00 0.00 0.00 65 1018.5
20260510002103 52 358 5.0 16.0 0.00 0.00 0.00 64 1018.5
20260510000603 53 355 6.0 12.0 0.00 0.00 0.00 63 1018.5
20260510000103 53 342 4.0 12.0 0.00 0.00 0.00 63 1018.5
20260509234103 54 5 5.0 9.0 0.00 0.00 0.00 65 1018.5
20260509233603 54 1 4.0 12.0 0.00 0.00 0.00 65 1018.5
20260509233103 54 0 4.0 12.0 0.00 0.00 0.00 65 1018.4
20260509232604 54 351 4.0 7.0 0.00 0.00 0.00 65 1018.4
20260509231104 55 338 4.0 7.0 0.00 0.00 0.00 65 1018.1
20260509230103 55 349 3.0 9.0 0.00 0.00 0.00 64 1017.9
20260509225604 55 337 4.0 12.0 0.00 0.00 0.00 64 1017.9
20260509225103 55 10 2.0 8.0 0.00 0.00 0.00 64 1018.0
20260509224603 55 357 3.0 9.0 0.00 0.00 0.00 64 1018.0
20260509223603 56 348 5.0 10.0 0.00 0.00 0.00 65 1017.9
20260509222104 56 348 3.0 7.0 0.00 0.00 0.00 65 1018.0
20260509215103 57 343 2.0 6.0 0.00 0.00 0.00 62 1017.9
20260509214103 58 332 2.0 7.0 0.00 0.00 0.00 62 1017.8
20260509213604 58 328 2.0 5.0 0.00 0.00 0.00 61 1017.7
20260509212103 59 4 3.0 9.0 0.00 0.00 0.00 60 1017.7
20260509211604 59 354 4.0 9.0 0.00 0.00 0.00 59 1017.6
20260509210103 59 3 2.0 9.0 0.00 0.00 0.00 58 1017.5
20260509205604 59 5 2.0 6.0 0.00 0.00 0.00 58 1017.5
20260509205103 59 357 3.0 7.0 0.00 0.00 0.00 58 1017.4
20260509203603 60 355 3.0 7.0 0.00 0.00 0.00 59 1017.3
20260509203104 60 345 2.0 6.0 0.00 0.00 0.00 59 1017.2
20260509202603 60 353 3.0 7.0 0.00 0.00 0.00 58 1017.3
20260509202104 60 4 3.0 7.0 0.00 0.00 0.00 58 1017.3
20260509201603 61 359 3.0 5.0 0.00 0.00 0.00 58 1017.2
20260509200603 61 351 4.0 7.0 0.00 0.00 0.00 58 1017.2
20260509195602 62 356 3.0 9.0 0.00 0.00 0.00 57 1017.0
20260509194603 62 357 3.0 7.0 0.00 0.00 0.00 57 1017.0
20260509194103 62 358 3.0 8.0 0.00 0.00 0.00 56 1017.0
20260509193603 63 359 3.0 8.0 0.00 0.00 0.00 56 1017.0
20260509193103 63 344 3.0 8.0 0.00 0.00 0.00 56 1017.0
20260509192103 64 342 4.0 8.0 0.00 0.00 0.00 56 1016.8
20260509191603 64 345 3.0 7.0 0.00 0.00 0.00 55 1016.8
20260509190603 65 350 2.0 7.0 0.00 0.00 0.00 54 1016.8
20260509185603 65 356 3.0 8.0 0.00 0.00 0.00 52 1016.8
20260509185103 65 13 3.0 6.0 0.00 0.00 0.00 52 1016.8
20260509184603 66 329 2.0 6.0 0.00 0.00 0.00 52 1016.8
20260509184103 66 355 5.0 9.0 0.00 0.00 0.00 52 1016.7
20260509183105 66 356 5.0 8.0 0.00 0.00 0.00 51 1016.7
20260509181103 66 342 3.0 6.0 0.00 0.00 0.00 51 1016.6
20260509173103 67 1 7.0 15.0 0.00 0.00 0.00 51 1016.3
20260509172103 68 355 6.0 16.0 0.00 0.00 0.00 49 1016.4
20260509171604 68 10 2.0 7.0 0.00 0.00 0.00 49 1016.4
20260509165603 68 352 5.0 12.0 0.00 0.00 0.00 49 1016.4
20260509165104 68 351 10.0 16.0 0.00 0.00 0.00 49 1016.4
20260509164603 68 0 6.0 14.0 0.00 0.00 0.00 49 1016.5
20260509163603 69 355 3.0 6.0 0.00 0.00 0.00 49 1016.5
20260509163104 68 351 2.0 13.0 0.00 0.00 0.00 49 1016.5
20260509162604 68 0 5.0 12.0 0.00 0.00 0.00 50 1016.6
20260509162104 69 350 4.0 12.0 0.00 0.00 0.00 50 1016.6
20260509161603 69 340 6.0 12.0 0.00 0.00 0.00 49 1016.5
20260509161104 69 348 6.0 12.0 0.00 0.00 0.00 49 1016.5
20260509160603 68 351 4.0 8.0 0.00 0.00 0.00 50 1016.5
20260509160104 69 4 3.0 8.0 0.00 0.00 0.00 49 1016.5
20260509155603 69 11 4.0 7.0 0.00 0.00 0.00 48 1016.6
20260509155104 69 352 2.0 6.0 0.00 0.00 0.00 49 1016.5
20260509153603 69 341 2.0 6.0 0.00 0.00 0.00 49 1016.6
20260509151103 68 333 3.0 10.0 0.00 0.00 0.00 50 1017.0
20260509145603 68 341 2.0 8.0 0.00 0.00 0.00 51 1017.1
20260509145102 68 340 1.0 6.0 0.00 0.00 0.00 50 1017.2
20260509143603 68 350 2.0 5.0 0.00 0.00 0.00 52 1017.2
20260509143103 68 3 3.0 7.0 0.00 0.00 0.00 52 1017.1